Home   Weather   Faro   Past weeks

Flag for Portugal Past Weather in Faro, Portugal — Yesterday and Last 2 Weeks

70 °F


Feels Like: 70 °F
Forecast: 62 / 74 °F
Wind: 15 mph from East

Location: Faro / Aeroporto

Current Time: Oct 28, 2016 at 9:32:43 AM

Latest Report: Oct 28, 2016 at 9:00 AM

Visibility: 10 mi

Pressure: 30.21 "Hg

Humidity: 73%

Dew Point: 61 °F

Location of FaroLocation

Past Weather in Faro — Graph


Faro Temperature Yesterday

Maximum temperature yesterday: 77 °F (at 10:30 AM)
Minimum temperature yesterday: 72 °F (at 2:30 AM)
Average temperature yesterday: 74 °F

High & Low Weather Summary for the Past Weeks

High81 °F (Oct 18, 3:00 PM)100% (Oct 14, 6:00 AM)30.21 "Hg (Oct 14, 6:00 AM)
Low52 °F (Oct 15, 8:00 AM)43% (Oct 14, 12:30 PM)29.62 "Hg (Oct 13, 8:00 AM)
Average67 °F79%29.94 "Hg
* Reported Oct 13 8:00 AM — Oct 28 8:30 AM, Faro, Weather by CustomWeather, © 2016

Note: Actual official high and low records may vary slightly from our data, if they occured in-between our weather recording intervals... More about our weather records


Faro Weather History for the Previous 24 Hours

Scroll right to see more
Time TempWeatherWind HumidityBarometerVisibility
8:30 AM
Fri, Oct 28
70 °FSunny.13 mph73%30.21 "Hg10 mi
8:00 AM70 °FSunny.13 mph73%30.21 "Hg10 mi
7:30 AM70 °FClear.10 mph78%30.21 "Hg10 mi
7:00 AM70 °FClear.12 mph78%30.18 "Hg10 mi
6:30 AM68 °FClear.10 mph83%30.18 "Hg10 mi
6:00 AM68 °FClear.10 mph83%30.18 "Hg10 mi
5:30 AM68 °FClear.8 mph83%30.18 "Hg10 mi
5:00 AM70 °FClear.8 mph83%30.18 "Hg10 mi
4:30 AM68 °FClear.12 mph88%30.18 "Hg10 mi
4:00 AM70 °FClear.10 mph83%30.18 "Hg10 mi
3:30 AM70 °FClear.10 mph83%30.18 "Hg10 mi
3:00 AM70 °FClear.9 mph83%30.18 "Hg10 mi
2:30 AM70 °FClear.8 mph83%30.18 "Hg10 mi
2:00 AM70 °FClear.8 mph83%30.18 "Hg10 mi
1:30 AM70 °FClear.10 mph83%30.18 "Hg10 mi
1:00 AM70 °FClear.8 mph83%30.18 "Hg10 mi
12:30 AM70 °FClear.9 mph83%30.18 "Hg10 mi
12:00 AM70 °FClear.12 mph83%30.18 "Hg10 mi
11:30 PM
Thu, Oct 27
72 °FClear.7 mph78%30.18 "Hg10 mi
11:00 PM72 °FClear.8 mph78%30.18 "Hg10 mi
10:30 PM72 °FClear.9 mph78%30.18 "Hg10 mi
10:00 PM72 °FClear.8 mph78%30.15 "Hg10 mi
9:30 PM72 °FClear.8 mph78%30.15 "Hg10 mi
9:00 PM73 °FClear.10 mph74%30.15 "Hg10 mi
8:30 PM73 °FClear.9 mph74%30.15 "Hg10 mi
8:00 PM73 °FClear.10 mph74%30.15 "Hg10 mi
7:30 PM73 °FClear.12 mph74%30.15 "Hg10 mi
7:00 PM73 °FClear.10 mph74%30.15 "Hg10 mi
6:30 PM73 °FSunny.12 mph74%30.12 "Hg10 mi
6:00 PM75 °FSunny.13 mph69%30.12 "Hg10 mi
5:30 PM75 °FSunny.12 mph69%30.12 "Hg10 mi
5:00 PM77 °FSunny.12 mph65%30.12 "Hg10 mi
4:30 PM77 °FPassing clouds.13 mph65%30.15 "HgN/A
4:00 PM77 °FPassing clouds.13 mph65%30.15 "HgN/A
3:30 PM77 °FPassing clouds.13 mph65%30.15 "HgN/A
3:00 PM77 °FPassing clouds.13 mph65%30.15 "HgN/A
2:30 PM77 °FPassing clouds.14 mph65%30.15 "HgN/A
2:00 PM75 °FScattered clouds.15 mph69%30.15 "HgN/A
1:30 PM75 °FSunny.14 mph65%30.15 "Hg10 mi
1:00 PM75 °FSunny.16 mph65%30.15 "Hg10 mi
12:30 PM75 °FSunny.15 mph65%30.15 "Hg10 mi
12:00 PM75 °FSunny.14 mph61%30.15 "Hg10 mi
11:30 AM77 °FSunny.14 mph57%30.15 "Hg10 mi
11:00 AM77 °FSunny.15 mph61%30.12 "Hg10 mi
10:30 AM77 °FSunny.13 mph57%30.12 "Hg10 mi
10:00 AM75 °FSunny.14 mph61%30.12 "Hg10 mi
9:30 AM75 °FSunny.15 mph61%30.09 "Hg10 mi
9:00 AM75 °FSunny.14 mph61%30.09 "Hg10 mi
Weather by CustomWeather, © 2016

See weather overviewHow to use our weather pages